User: anonymous   Login
Location: Cheadle
(51.0146°N, 113.5417°W)
Time: 12:52:26
(UTC+00:00)
Language:

Oscar 19 - Orbit

View from above orbital plane
View from above orbital plane
View from above satellite
View from above satellite

Ground track
Ground track

The orbit data is extracted from the following two-line orbital elements,

1 20442U 90005G   23334.52335816  .00000570  00000-0  22347-3 0  9997
2 20442  98.8646 314.7722 0012622  54.1150 306.1203 14.33380217769234
Epoch (UTC): 30 November 2023 12:33:38
Eccentricity: 0.0012622
inclination: 98.8646°
perigee height: 771 km
apogee height: 789 km
right ascension of ascending node: 314.7722°
argument of perigee: 54.1150°
revolutions per day: 14.33380217
mean anomaly at epoch: 306.1203°
orbit number at epoch: 76923

The dashed part of the orbit path shows where the satellite is in the earth's shadow,  

DLR